Location: Home
(42.5358°N, 72.7383°W)
Time: 06:34:58
(UTC-05:00)

Explorer 11/Cluster Stage 4 - Pass Details

Date: 30 November 2021
Orbit: 467 x 1255 km, 28.8° (Epoch: 25 January)

Event Time Altitude Azimuth Distance (km) Brightness Sun altitude
Rises 02:24:59 0° 212° (SSW) 3,743 - -49.8°
Reaches altitude 10° 02:28:40 10° 192° (SSW) 2,934 - -49.2°
Maximum altitude 02:33:02 17° 156° (SSE) 2,591 - -48.4°
Exits shadow 02:36:15 13° 129° (SE) 2,907 9.7 -47.8°
Drops below altitude 10° 02:37:41 10° 120° (ESE) 3,170 10.0 -47.6°
Sets 02:41:53 0° 102° (ESE) 4,186 10.9 -46.8°
